This is the latest recevied weather packets stored in our database for station/object WX7FGZ-5. If no packets are shown the sender has not sent any weather packets the latest 10 day(s).
| Time | Temp. | Humidity | Pressure | Rain* | Wind** | Luminosity | Snow |
|---|---|---|---|---|---|---|---|
| 1777990075 | 4.44° C | 68% | 1017.2 hPa | 0 mm | - | 366 W/m² | - |
| 1777989903 | 4.44° C | 68% | 1017.2 hPa | 0 mm | - | 366 W/m² | - |
| 1777989158 | 3.89° C | 68% | 1017 hPa | 0 mm | - | 63 W/m² | - |
| 1777989009 | 3.89° C | 68% | 1017 hPa | 0 mm | - | 63 W/m² | - |
| 1777988886 | 3.89° C | 69% | 1017.1 hPa | 0 mm | - | 195 W/m² | - |
| 1777988703 | 3.89° C | 69% | 1017.1 hPa | 0 mm | - | 195 W/m² | - |
| 1777988403 | 3.33° C | 71% | 1017 hPa | 0 mm | - | 135 W/m² | - |
| 1777988291 | 2.78° C | 71% | 1017.2 hPa | 0 mm | - | 77 W/m² | - |
| 1777988102 | 2.78° C | 71% | 1017.2 hPa | 0 mm | - | 77 W/m² | - |
| 1777987502 | 1.67° C | 74% | 1017.1 hPa | 0 mm | - | 169 W/m² | - |
| 1777987203 | 1.11° C | 74% | 1017.2 hPa | 0 mm | - | 142 W/m² | - |
| 1777986903 | 0.56° C | 75% | 1017.1 hPa | 0 mm | - | 88 W/m² | - |
| 1777986227 | 0.56° C | 73% | 1016.7 hPa | 0 mm | - | 32 W/m² | - |
| 1777986003 | 0.56° C | 73% | 1016.7 hPa | 0 mm | - | 32 W/m² | - |
| 1777985702 | 1.11° C | 73% | 1016.6 hPa | 0 mm | - | 18 W/m² | - |
| 1777984686 | 2.22° C | 71% | 1016.3 hPa | 0 mm | - | 0 W/m² | - |
| 1777984502 | 2.22° C | 71% | 1016.3 hPa | 0 mm | - | 0 W/m² | - |
| 1777984202 | 2.22° C | 71% | 1016.3 hPa | 0 mm | - | 0 W/m² | - |
| 1777983602 | 2.22° C | 71% | 1016.4 hPa | 0 mm | - | 0 W/m² | - |
| 1777982418 | 2.78° C | 67% | 1016.2 hPa | 0 mm | - | 0 W/m² | - |
| 1777982117 | 2.78° C | 67% | 1016.2 hPa | 0 mm | - | 0 W/m² | - |
| 1777981810 | 2.78° C | 67% | 1016.3 hPa | 0 mm | - | 0 W/m² | - |
| 1777981218 | 2.78° C | 67% | 1017.2 hPa | 0 mm | - | 0 W/m² | - |
| 1777981146 | 2.78° C | 66% | 1017.1 hPa | 0 mm | - | 0 W/m² | - |
| 1777980903 | 2.78° C | 66% | 1017.1 hPa | 0 mm | - | 0 W/m² | - |
* Rain latest hour (hover to see other rain measurements)
** Current wind speed in m/s (hover to see current wind gust speed)